Location: Earls Croome
(52.0667°N, 2.2000°W)
Time: 07:22:11
(UTC+00:00)

Meteor 2-3 Rocket - Pass Details

Date: 17 November 2019
Orbit: 843 x 884 km, 81.2° (Epoch: 15 December)

Event Time Altitude Azimuth Distance (km) Brightness Sun altitude
Rises 06:45:58 0° 201° (SSW) 3,455 6.9 -7.1°
Reaches altitude 10° 06:48:24 10° 205° (SSW) 2,526 6.2 -6.8°
Maximum altitude 06:54:07 64° 286° (WNW) 975 3.8 -6.0°
Drops below altitude 10° 06:59:55 10° 9° (N) 2,558 6.1 -5.2°
Sets 07:02:25 0° 12° (NNE) 3,503 6.8 -4.8°
